This demonstration page uses our WeatherBlox Daily Observations layout. Learn more.

Left ArrowRight Arrow

Hourly Observations for August 23, 2017

Temp ( °F °C ) Dew Point ( °F °C ) Humidity (%) Winds ( mph kmh ) Pressure ( in mb ) Visibility ( mi km ) Precip ( " mm )
12:53 am 00:53 Mostly Clear 67 19.4 57 13.9 71 71 ENE 8 13 30.12 1020 10 16 0.00 0.00
1:53 am 01:53 Mostly Clear 66 18.9 58 14.4 75 75 ENE 9 15 30.12 1020 10 16 0.00 0.00
2:53 am 02:53 Mostly Clear 65 18.3 56 13.3 73 73 ENE 7 11 30.12 1020 10 16 0.00 0.00
3:53 am 03:53 Clear 63 17.2 55 12.8 76 76 NNE 7 11 30.13 1020 10 16 0.00 0.00
4:53 am 04:53 Clear 62 16.7 55 12.8 78 78 NE 9 15 30.13 1020 10 16 0.00 0.00
5:53 am 05:53 Mostly Clear 61 16.1 54 12.2 78 78 NE 6 9 30.13 1020 10 16 0.00 0.00
6:53 am 06:53 Mostly Sunny 60 15.6 54 12.2 80 80 NE 7 11 30.13 1020 10 16 0.00 0.00
7:53 am 07:53 Mostly Sunny 64 17.8 54 12.2 70 70 ENE 8 13 30.13 1020 10 16 0.00 0.00
8:53 am 08:53 Sunny 69 20.6 53 11.7 57 57 ENE 12 19 30.13 1020 10 16 0.00 0.00
9:53 am 09:53 Sunny 72 22.2 52 11.1 50 50 E 12 19 30.13 1020 10 16 0.00 0.00
10:53 am 10:53 Sunny 75 23.9 53 11.7 46 46 E 10 17 30.12 1020 10 16 0.00 0.00
11:53 am 11:53 Sunny 77 25 52 11.1 42 42 E 7 11 30.11 1020 10 16 0.00 0.00
12:53 pm 12:53 Sunny 81 27.2 51 10.6 35 35 E 7 11 30.09 1019 10 16 0.00 0.00
1:53 pm 13:53 Sunny 83 28.3 51 10.6 33 33 E 7 11 30.07 1018 10 16 0.00 0.00
2:53 pm 14:53 Sunny 86 30 51 10.6 30 30 ENE 8 13 30.04 1017 10 16 0.00 0.00
3:53 pm 15:53 Sunny 84 28.9 48 8.9 29 29 E 10 17 30.02 1017 10 16 0.00 0.00
4:53 pm 16:53 Sunny 84 28.9 50 10 31 31 ESE 12 19 30.01 1016 10 16 0.00 0.00
5:53 pm 17:53 Sunny 83 28.3 51 10.6 33 33 ESE 10 17 29.99 1016 10 16 0.00 0.00
6:53 pm 18:53 Mostly Sunny 81 27.2 52 11.1 37 37 ESE 10 17 29.99 1016 10 16 0.00 0.00
7:53 pm 19:53 Partly Cloudy 77 25 51 10.6 40 40 ESE 10 17 29.98 1015 10 16 0.00 0.00
8:53 pm 20:53 Mostly Clear 73 22.8 53 11.7 50 50 ESE 8 13 30.00 1016 10 16 0.00 0.00
9:53 pm 21:53 Clear 71 21.7 55 12.8 57 57 ESE 7 11 30.02 1017 10 16 0.00 0.00
10:53 pm 22:53 Clear 69 20.6 55 12.8 61 61 ESE 9 15 30.02 1017 10 16 0.00 0.00
11:53 pm 23:53 Clear 66 18.9 56 13.3 70 70 ESE 7 11 30.03 1017 10 16 0.00 0.00

Powered by Vaisala Xweather